Weather in Dubovoye

Russia / Amur Oblast     49°42′56″N   128°46′43″E
temp.,
°C
wind,
m/s
gust,
m/s
humid.,
%
clouds,
%
prec.,
mm/h
press.,
hPa
HPBL,
m
12 april, mon
mon1200:00+2ne61134100 0.0 1022492
03:00+1ne61137100 0.1 1020509
06:00−1nne81264100 0.4 1017531
09:00−3ne81393100 2.5 1015577
12:00−3nne91495100 7.4 1014666
15:00−5n101593100 10.6 1014777
18:00−4n81470100 0.5 1014910
21:00−5nnw61467100 0.5 1016549
13 april, tue
tue1300:00−8nnw51274100 0.0 1015331
03:00−10nw4128532 0.0 1015223
06:00−11nw514845 0.0 1014309
09:00−7nw711815 0.0 1012865
12:00−3nw7961100 0.1 10111832
15:00−2nw61065100 0.4 10091791
18:00−3wnw596999 0.2 1008263
21:00−7wnw5117977 0.2 1009184
14 april, wed
wed1400:00−10wnw4983100 0.0 1009114
03:00−9wnw512835 0.0 1008208
06:00−11wnw411895 0.0 1009185
09:00−5nw58837 0.0 1009534
12:00−2wnw5763100 0.1 10091628
15:00−1w46616 0.1 10091308
18:00−2sw488090 0.0 1009216
21:00−7ssw239356 0.0 101132
15 april, thu
thu1500:00−9wsw22925 0.0 101231
03:00−10wsw22925 0.0 101212
06:00−11s119427 0.0 101210
09:00−3se3378100 0.0 1012179
12:00+1ese577997 0.0 1011369
15:00+4ese61064100 0.0 1008771
18:00+3e71563100 0.2 1006418
21:00+3e102066100 0.4 1003588
16 april, fri
fri1600:00+4ese112159100 0.0 1000659
03:00+3ese101965100 0.0 998524
06:00+2se91869100 0.0 998509
09:00+3ese71471100 0.0 999671
12:00+5sse6985100 0.6 1000956
15:00+5ese6788100 1.3 1001451
18:00+5e6986100 0.3 1002316
21:00+3ese4109367 0.3 1004214